Weather Roundup
Issued by NWS Chicago, IL

Home | Current Version | Previous Version | Graphics & Text | Print | Product List | Glossary On
Versions: 1 2 3 4 5 6 7 8 9 10 11 12 13 14 15 16 17 18 19 20 21 22 23 24 25 26 27 28 29 30 31 32 33 34 35 36 37 38 39 40 41 42 43 44 45 46 47 48 49 50
000
NZUS59 KLOT 140308
HRRLOT

CHICAGO AREA WEATHER ROUNDUP
NATIONAL WEATHER SERVICE CHICAGO/ROMEOVILLE IL
900 PM CST WED DEC 13 2017

NOTE: "FAIR" INDICATES FEW OR NO CLOUDS BELOW 12,000 FEET WITH NO
SIGNIFICANT WEATHER AND/OR OBSTRUCTIONS TO VISIBILITY.

* THESE STATIONS ARE NOT UNDER NWS QUALITY CONTROL. THEY ALSO MAY NOT
  REPORT WEATHER SUCH AS PRECIPITATION OR FOG.

ILZ005-006-012>014-019>023-140400-
NORTHEAST ILLINOIS

CITY           SKY/WX    TMP DP  RH WIND       PRES   REMARKS
OHARE          FLURRIES  29  20  69 NW21G26   29.63R WCI  16
MIDWAY         FLURRIES  29  21  72 NW21      29.63R WCI  16
AURORA         MOCLDY    27  19  72 NW24      29.67R WCI  12
LANSING*       CLOUDY    28  21  75 NW15G29   29.61R WCI  17
JOLIET*        CLOUDY    29  20  67 NW16G24   29.66R WCI  18
WAUKEGAN       CLOUDY    28  21  75 N12       29.64R WCI  18
DUPAGE AIRPORT CLOUDY    27  21  78 NW17G28   29.65R WCI  14
WHEELING       CLOUDY    29  23  78 NW15G23   29.65R WCI  18
KANKAKEE*      MOCLDY    29  18  63 NW22G33   29.65R WCI  15
MORRIS*        CLOUDY    28  18  67 NW15G24   29.67R WCI  16
LEWIS AIRPORT* CLOUDY    28  20  73 NW20G25   29.65R WCI  14
NORTHERLY ISL    N/A     29  21  72 NW16        N/A  WCI  17
$$

WIZ051-052-058>065-066-070>072-140400-
SOUTHEAST WISCONSIN

CITY           SKY/WX    TMP DP  RH WIND       PRES   REMARKS
MILWAUKEE      LGT SNOW  28  21  75 N24G39    29.67R BLWGSNOWWCI  14
KENOSHA*       LGT SNOW  28  21  75 N12G22    29.65R WCI  18
RACINE*        FLURRIES  28  21  75 N17G33    29.67R WCI  16
BURLINGTON     PTCLDY    26  21  83 N15G25    29.68R WCI  13
WAUKESHA       LGT SNOW  23  19  86 N14       29.68R WCI  11
WEST BEND      LGT SNOW  23  21  93 N15G24    29.70R WCI  10
$$

INZ001>003-010>013-019-020-140400-
NORTHWEST INDIANA

CITY           SKY/WX    TMP DP  RH WIND       PRES   REMARKS
GARY*          FLURRIES  30  19  64 NW21G41   29.61R WCI  17
MICHIGAN CITY* NOT AVBL
RENSSELAER*    NOT AVBL
VALPARAISO     CLOUDY    30  21  69 NW20G35   29.56R WCI  17
$$

LMZ740>746-140400-
SOUTHERN LAKE MICHIGAN

STATION/POSITION TIME  SKY/WX   TEMP WIND        PRES    VSBY
                                AIR  DIR/SP/G
                 (UTC)          (F)  (DEG/KT/KT) (MB)    (MI)
HARRISON CRIB    0240            30  320/ 25/ 30   N/A
BURNHAM HARBOR   0300            29  320/ 13/ 25   N/A
CALUMET HARBOR   0242            28  290/ 15/ 26 1001.9R
BURNS HARBOR     0240            31  310/ 27/ 34 1001.0R
MICHIGAN CITY    0240            31  280/ 34/ 40   N/A
$$

ABBREVIATIONS USED IN REMARKS
   TC - TEMPERATURE IN CELSIUS
  WCI - WIND CHILL INDEX
   HX - HEAT INDEX
  VSB - VISIBILITY
$$




USA.gov is the U.S. government's official web portal to all federal, state and local government web resources and services.